Weather reports worldwide

Advertisment
Moses Lake, wa, United States of America (2074711): temperature & dewpoint: 09.10.2019 11:00:00 - 15.10.2019 11:00:00 (PDT)Moses Lake, wa, United States of America (2074711): wind speed: 09.10.2019 11:00:00 - 15.10.2019 11:00:00 (PDT)Moses Lake, wa, United States of America (2074711): wind direction: 09.10.2019 11:00:00 - 15.10.2019 11:00:00 (PDT)Moses Lake, wa, United States of America (2074711): reduced air pressure: 09.10.2019 11:00:00 - 15.10.2019 11:00:00 (PDT)Moses Lake, wa, United States of America (2074711): visibility: 09.10.2019 11:00:00 - 15.10.2019 11:00:00 (PDT)Moses Lake, wa, United States of America (2074711): precipitation: 09.10.2019 11:00:00 - 15.10.2019 11:00:00 (PDT)
Date & Time tt [°C] td [°C] ff [km/h] ff [kn] dd ppp [hPa] vv [km] rr [mm]
15.10.2019 11:00:00 10,0 1,7 0 0 N 1024,1 16 -
15.10.2019 10:00:00 8,3 1,7 5 3 NE 1019,7 16 -
15.10.2019 09:00:00 6,7 1,1 13 7 N 1024,8 16 -
15.10.2019 08:00:00 2,2 -0,6 13 7 N 1020,1 16 -
15.10.2019 07:00:00 2,2 -1,1 13 7 NNE 1019,8 16 -
15.10.2019 06:00:00 2,2 -1,7 13 7 NNW 1020,2 16 -
15.10.2019 05:00:00 2,2 -1,7 13 7 N 1019,6 16 -
15.10.2019 04:00:00 2,2 -1,7 13 7 N 1020,0 16 -
15.10.2019 03:00:00 2,8 -1,7 13 7 N 1020,3 16 -
15.10.2019 02:00:00 - - - - - - - -
15.10.2019 01:00:00 - - - - - - - -
15.10.2019 00:00:00 2,8 -1,7 9 5 N 1025,5 16 -
14.10.2019 23:00:00 5,0 -0,6 8 4 NNE 1025,6 16 -
14.10.2019 22:00:00 6,1 -0,6 8 4 N 1021,0 16 -
14.10.2019 21:00:00 8,3 -0,6 0 0 N 1020,3 16 -
14.10.2019 20:00:00 12,2 0,0 5 3 S 1019,7 16 -
14.10.2019 19:00:00 12,2 -0,6 5 3 SE 1019,4 16 -
14.10.2019 18:00:00 15,0 -0,6 5 3 SSE 1019,2 16 -
14.10.2019 17:00:00 16,7 -1,1 5 3 WSW 1024,0 16 -
14.10.2019 16:00:00 16,7 0,0 0 0 N 1023,8 16 -
14.10.2019 15:00:00 16,7 1,7 8 4 WSW 1018,9 16 -
14.10.2019 14:00:00 16,1 2,2 8 4 SW 1019,2 16 -
14.10.2019 13:00:00 14,4 2,2 0 0 N 1024,3 16 -
14.10.2019 12:00:00 13,3 2,2 0 0 N 1024,6 16 -
14.10.2019 11:00:00 11,7 2,2 0 0 N 1024,5 16 -
14.10.2019 10:00:00 7,8 1,7 0 0 N 1024,4 16 -
14.10.2019 09:00:00 3,9 0,0 5 3 NNE 1019,2 16 -
14.10.2019 08:00:00 -0,6 -2,8 5 3 NNE 1018,8 16 -
14.10.2019 07:00:00 -0,6 -2,8 5 3 N 1018,1 16 -
14.10.2019 06:00:00 -0,6 -2,8 5 3 N 1017,4 16 -
14.10.2019 05:00:00 -0,6 -2,8 5 3 N 1016,8 16 -
14.10.2019 04:00:00 0,0 -2,2 9 5 N 1016,2 16 -
14.10.2019 03:00:00 1,1 -1,7 5 3 NNW 1020,5 16 -
14.10.2019 02:00:00 1,7 -1,1 5 3 N 1020,0 16 -
14.10.2019 01:00:00 2,2 -1,7 9 5 NNW 1014,8 16 -
14.10.2019 00:00:00 2,8 -1,1 9 5 N 1014,5 16 -
13.10.2019 23:00:00 3,3 -0,6 11 6 N 1014,2 16 -
13.10.2019 22:00:00 7,2 1,1 8 4 NNE 1018,5 16 -
13.10.2019 21:00:00 7,2 1,1 5 3 NE 1018,3 16 -
13.10.2019 20:00:00 9,4 1,7 5 3 SSE 1017,8 16 -
13.10.2019 19:00:00 11,1 1,7 8 4 SSE 1012,9 16 -
13.10.2019 18:00:00 12,8 1,1 5 3 SSE 1012,6 16 -
13.10.2019 17:00:00 14,4 1,1 13 7 S 1012,4 16 -
13.10.2019 16:00:00 14,4 1,1 9 5 S 1012,2 16 -
13.10.2019 15:00:00 14,4 1,1 9 5 - 1012,0 16 -
13.10.2019 14:00:00 14,4 1,1 9 5 S 1012,6 16 -
13.10.2019 13:00:00 12,2 2,2 9 5 SSW 1013,2 16 -
13.10.2019 12:00:00 10,6 3,3 8 4 SSE 1013,7 16 -
13.10.2019 11:00:00 9,4 2,2 0 0 N 1014,1 16 -
13.10.2019 10:00:00 8,3 2,2 5 3 ENE 1014,0 16 0,0
13.10.2019 09:00:00 7,8 1,7 0 0 N 1014,0 16 -
13.10.2019 08:00:00 6,7 1,1 5 3 NNE 1013,7 16 -
13.10.2019 07:00:00 6,1 1,1 0 0 N 1013,7 16 -
13.10.2019 06:00:00 6,1 1,1 0 0 N 1013,4 16 -
13.10.2019 05:00:00 5,0 0,6 9 5 N 1013,2 13 -
13.10.2019 04:00:00 7,2 1,1 0 0 N 1013,1 16 -
13.10.2019 03:00:00 7,2 1,1 0 0 N 1013,5 16 -
13.10.2019 02:00:00 7,2 0,6 0 0 N 1013,8 10 -
13.10.2019 01:00:00 8,3 0,0 0 0 N 1013,8 15 -
13.10.2019 00:00:00 8,9 0,0 5 3 NE 1013,9 16 -
12.10.2019 23:00:00 9,4 0,6 0 0 N 1014,3 16 -
12.10.2019 22:00:00 10,0 0,6 0 0 N 1014,4 16 -
12.10.2019 21:00:00 11,1 -0,6 5 3 W 1014,9 16 -
12.10.2019 20:00:00 11,7 0,0 8 4 SW 1015,5 16 -
12.10.2019 19:00:00 12,8 0,6 9 5 SW 1015,7 16 -
12.10.2019 18:00:00 13,3 -0,6 8 4 SSW 1015,7 16 -
12.10.2019 17:00:00 14,4 -1,7 5 3 WSW 1016,3 16 -
12.10.2019 16:00:00 14,4 -2,2 0 0 N 1016,9 16 -
12.10.2019 15:00:00 15,0 -1,1 0 0 N 1022,3 16 -
12.10.2019 14:00:00 13,3 -1,1 0 0 N 1018,0 16 -
12.10.2019 13:00:00 11,7 -1,1 0 0 N 1018,8 16 -
12.10.2019 12:00:00 11,1 -1,1 5 3 - 1019,4 16 -
12.10.2019 11:00:00 9,4 -1,7 8 4 NNE 1020,1 16 -
12.10.2019 10:00:00 7,2 -2,2 9 5 NNE 1020,6 16 -
12.10.2019 09:00:00 3,3 -3,3 5 3 NNE 1020,7 16 -
12.10.2019 08:00:00 -0,6 -5,0 8 4 N 1020,9 16 -
12.10.2019 07:00:00 -2,8 -5,6 8 4 N 1020,9 16 -
12.10.2019 06:00:00 -1,1 -5,0 13 7 NNE 1020,5 16 -
12.10.2019 05:00:00 -1,1 -5,0 11 6 NNE 1020,6 16 -
12.10.2019 04:00:00 -1,1 -5,6 11 6 N 1021,0 16 -
12.10.2019 03:00:00 0,0 -5,0 9 5 N 1021,3 16 -
12.10.2019 02:00:00 1,1 -5,0 8 4 N 1026,5 16 -
12.10.2019 01:00:00 1,7 -5,6 11 6 N 1021,8 16 -
12.10.2019 00:00:00 1,7 -5,6 11 6 N 1022,1 16 -
11.10.2019 23:00:00 1,7 -5,6 9 5 N 1022,2 16 -
11.10.2019 22:00:00 2,8 -5,6 11 6 N 1022,6 16 -
11.10.2019 21:00:00 5,6 -5,6 11 6 N 1022,9 16 -
11.10.2019 20:00:00 6,1 -6,7 11 6 N 1023,1 16 -
11.10.2019 19:00:00 9,4 -6,1 9 5 NNW 1023,2 11 -
11.10.2019 18:00:00 13,9 -6,1 5 3 NE 1023,4 16 -
11.10.2019 17:00:00 15,6 -6,1 8 4 ENE 1023,9 16 -
11.10.2019 16:00:00 15,6 -5,6 13 7 ENE 1024,5 16 -
11.10.2019 15:00:00 14,4 -5,6 5 3 ESE 1025,4 16 -
11.10.2019 14:00:00 13,9 -5,6 8 4 E 1026,4 16 -
11.10.2019 13:00:00 12,8 -5,6 13 7 E 1027,5 16 -
11.10.2019 12:00:00 12,8 -4,4 15 8 ENE 1028,4 16 -
11.10.2019 11:00:00 10,6 -3,9 15 8 ENE 1029,0 16 -
11.10.2019 10:00:00 7,8 -3,9 13 7 NE 1029,8 16 -
11.10.2019 09:00:00 2,2 -4,4 9 5 N 1030,3 16 -
11.10.2019 08:00:00 -1,1 -6,1 9 5 N 1030,5 16 -
11.10.2019 07:00:00 -2,8 -7,2 11 6 N 1030,5 16 -
11.10.2019 06:00:00 -2,8 -7,8 13 7 N 1030,5 16 -
11.10.2019 05:00:00 -2,2 -7,8 11 6 N 1030,1 16 -
11.10.2019 04:00:00 -1,1 -7,2 13 7 N 1030,0 16 -
11.10.2019 03:00:00 -1,1 -7,2 11 6 N 1030,5 16 -
11.10.2019 02:00:00 -0,6 -6,7 13 7 N 1030,7 16 -
11.10.2019 01:00:00 -0,6 -6,7 11 6 N 1030,8 16 -
11.10.2019 00:00:00 0,0 -6,7 9 5 N 1031,0 16 -
10.10.2019 23:00:00 0,6 -6,7 8 4 N 1031,2 16 -
10.10.2019 22:00:00 3,3 -6,1 5 3 NNE 1031,2 13 -
10.10.2019 21:00:00 5,6 -7,2 0 0 N 1031,2 16 -
10.10.2019 20:00:00 8,3 -6,7 0 0 N 1031,4 16 -
10.10.2019 19:00:00 8,3 -6,7 5 3 SE 1031,5 16 -
10.10.2019 18:00:00 10,6 -7,8 8 4 SE 1031,4 16 -
10.10.2019 17:00:00 11,1 -7,8 8 4 SE 1031,4 16 -
10.10.2019 16:00:00 11,7 -7,2 9 5 WSW 1031,7 16 -
10.10.2019 15:00:00 11,1 -7,2 11 6 SSW 1032,1 16 -
10.10.2019 14:00:00 10,6 -7,8 9 5 S 1032,8 16 -
10.10.2019 13:00:00 9,4 -6,7 8 4 SW 1033,4 16 -
10.10.2019 12:00:00 7,2 -6,1 5 3 - 1034,0 16 -
10.10.2019 11:00:00 5,0 -5,6 0 0 N 1034,6 16 -
10.10.2019 10:00:00 2,2 -5,6 5 3 NNW 1034,8 16 -
10.10.2019 09:00:00 -1,7 -7,2 8 4 N 1035,0 16 -
10.10.2019 08:00:00 -4,4 -8,3 8 4 N 1034,8 16 -
10.10.2019 07:00:00 -5,6 -8,9 9 5 N 1034,2 16 -
10.10.2019 06:00:00 -5,0 -8,9 13 7 N 1033,6 16 -
10.10.2019 05:00:00 -5,0 -8,9 13 7 N 1033,3 16 -
10.10.2019 04:00:00 -4,4 -8,9 11 6 N 1032,9 16 -
10.10.2019 03:00:00 -4,4 -8,9 11 6 N 1032,7 16 -
10.10.2019 02:00:00 -3,9 -8,3 8 4 NNE 1032,6 16 -
10.10.2019 01:00:00 -2,8 -7,8 9 5 N 1032,3 16 -
10.10.2019 00:00:00 -1,1 -6,7 11 6 N 1032,2 16 -
09.10.2019 23:00:00 0,0 -7,2 9 5 N 1031,8 16 -
09.10.2019 22:00:00 3,3 -6,7 0 0 N 1031,2 16 -
09.10.2019 21:00:00 2,2 -8,3 9 5 ENE 1030,6 16 -
09.10.2019 20:00:00 4,4 -7,8 5 3 N 1030,0 16 -
09.10.2019 19:00:00 7,8 -8,9 8 4 NNE 1029,1 16 -
09.10.2019 18:00:00 10,0 -10,0 15 8 NNE 1033,4 16 -
09.10.2019 17:00:00 11,7 -9,4 13 7 N 1032,9 16 -
09.10.2019 16:00:00 11,7 -8,9 9 5 N 1032,6 16 -
09.10.2019 15:00:00 11,1 -7,8 - - - 1032,3 16 -
09.10.2019 14:00:00 11,1 -7,2 8 4 WNW 1032,2 16 -
09.10.2019 13:00:00 11,1 -6,7 15 8 NNW 1032,2 16 -
09.10.2019 12:00:00 9,4 -7,2 15 8 NNE 1032,2 16 -
09.10.2019 11:00:00 9,4 -7,2 26 14 N 1031,9 16 -

tt = temperature
td = dewpoint
ff = wind speed
dd = wind direction
ppp = reduced air pressure
vv = visibility
rr = precipitation

Next stations